Погода в Крыловке

Россия / Приморский край     44°56′13″N   133°41′12″E
темп.,
°C
ветер,
м/с
пор.,
м/с
влажн.,
%
обл.,
%
осадки,
мм/ч
давл.,
гПа
погр.,
м
29 января, сб
сб2901:00−15зсз3994100 0.4 1016610
04:00−17з2697100 0.7 1017302
07:00−19з1399100 0.3 1016117
10:00−17з2695100 0.6 1016358
13:00−14з3787100 0.5 10141049
16:00−13зсз41088100 0.8 10141456
19:00−17сз269497 0.3 1015182
22:00−17зсз2796100 0.6 1017481
30 января, вс
вс3001:00−19з1299100 0.3 101779
04:00−21з12100100 0.4 101828
07:00−19з1299100 0.3 101889
10:00−17з1295100 0.6 1019219
13:00−14зсз3778100 0.1 10181305
16:00−14сз4776100 0.3 10181256
19:00−18сз1199100 0.1 102014
22:00−23сз1110088 0.1 10229
31 января, пн
пн3101:00−23зсз1110096 0.1 102311
04:00−26ссв1110087 0.1 10249
07:00−28в11100100 0.0 102510
10:00−23вюв119984 0.0 102663
13:00−16зсз128270 0.0 1026480
16:00−14зсз237981 0.0 1025593
19:00−22ссз11995 0.0 10269
22:00−25вюв1110047 0.0 10269
1 февраля, вт
вт101:00−25вюв11100100 0.0 102510
04:00−23юв11100100 0.1 102421
07:00−23вюв1110099 0.1 102417
10:00−20ююв119895 0.1 102481
13:00−13з1287100 0.1 1023504
16:00−12зсз2385100 0.1 1022563
19:00−19з1110069 0.0 10249
22:00−20ююв00100100 0.1 102410
2 февраля, ср
ср201:00−20юз11100100 0.1 102514
04:00−20зюз11100100 0.4 102512
07:00−21зюз11100100 0.2 102511
10:00−17зюз1295100 0.4 1025162
13:00−13з2384100 0.1 1023691
16:00−13зсз2482100 0.2 1022842
19:00−18з11100100 0.1 102311
22:00−18зюз1199100 0.3 102212